Location: Unspecified
(0.0000°N, 0.0000°E)
Time: 08:13:19
(UTC+00:00)

deb r/b Ablestar - Pass Details

Date: 21 February 2026
Orbit: 902 x 2195 km, 67.6° (Epoch: 14 March)

Event Time Altitude Azimuth Distance (km) Brightness Sun altitude
Rises 05:20:48 0° 9° (N) 4,444 ? -13.0°
Reaches altitude 10° 05:24:05 10° 22° (NNE) 3,660 ? -12.2°
Maximum altitude 05:31:35 27° 76° (ENE) 2,935 ? -10.3°
Drops below altitude 10° 05:40:31 10° 128° (SE) 4,458 ? -8.1°
Sets 05:44:56 0° 138° (SE) 5,594 ? -7.1°
